Weather History for Dallas Love, TX

Change the Weather History Date:

Wednesday, August 7, 2013

  Actual Average Record
Temperature  
Mean Temperature 94 °F -  
Max Temperature 106 °F 94 °F 106 °F (2013)
Min Temperature 82 °F 75 °F 62 °F (1997)
Cooling Degree Days 29    
Growing Degree Days 44 (Base 50)    
Moisture  
Dew Point 65 °F    
Average Humidity 40    
Maximum Humidity 61    
Minimum Humidity 24    
Precipitation  
Precipitation 0.00 in - - ()
Sea Level Pressure  
Sea Level Pressure 29.81 in    
Wind  
Wind Speed 12 mph (South)    
Max Wind Speed 15 mph    
Max Gust Speed 23 mph    
Visibility 10 miles    
Events      
Averages and records for this station are not official NWS values.
T = Trace of Precipitation, MM = Missing Value Source: NWS Daily Summary

Daily Weather History Graph

Daily Weather History Graph

Search for Another Location

Airport:

Trip Planner

Search our weather history database for the weather conditions in past years. The results will help you decide how hot, cold, wet, or windy it might be!

Date:

Astronomy

Aug. 07, 2013 Rise Set
Actual Time 6:45 AM CDT 8:20 PM CDT
Civil Twilight 6:18 AM CDT 8:46 PM CDT
Nautical Twilight 5:47 AM CDT 9:18 PM CDT
Astronomical Twilight 5:13 AM CDT 9:51 PM CDT
Moon 7:29 AM CDT (8/7) 8:36 PM CDT (8/7)
Length of Visible Light 14h 27m
Length of Day
13h 34m
New Moon, 1% of the Moon is Illuminated
Aug 7
New Moon
Aug 14
First Quarter
Aug 20
Full
Aug 28
Last Quarter
Sep 5
New

Hourly Weather History & Observations

Time (CDT) Temp. Heat Index Dew Point Humidity Pressure Visibility Wind Dir Wind Speed Gust Speed Precip Events Conditions
12:53 AM 91.9 °F 94.1 °F 64.9 °F 41% 29.82 in 10.0 mi South 15.0 mph - N/A   Clear
1:53 AM 90.0 °F 92.4 °F 66.0 °F 45% 29.82 in 10.0 mi South 13.8 mph - N/A   Clear
2:53 AM 88.0 °F 90.7 °F 66.9 °F 49% 29.82 in 10.0 mi South 13.8 mph - N/A   Clear
3:53 AM 86.0 °F 90.1 °F 69.1 °F 57% 29.82 in 10.0 mi South 13.8 mph - N/A   Clear
4:53 AM 84.9 °F 88.2 °F 68.0 °F 57% 29.81 in 10.0 mi South 12.7 mph 19.6 mph N/A   Clear
5:53 AM 84.0 °F 87.8 °F 69.1 °F 61% 29.83 in 10.0 mi South 8.1 mph - N/A   Clear
6:53 AM 82.9 °F 85.8 °F 68.0 °F 60% 29.83 in 10.0 mi South 10.4 mph - N/A   Partly Cloudy
7:53 AM 82.9 °F 85.8 °F 68.0 °F 60% 29.84 in 10.0 mi South 13.8 mph - N/A   Clear
8:53 AM 86.0 °F 90.1 °F 69.1 °F 57% 29.86 in 10.0 mi SSW 11.5 mph - N/A   Partly Cloudy
9:53 AM 88.0 °F 92.1 °F 69.1 °F 53% 29.87 in 10.0 mi SSW 9.2 mph - N/A   Scattered Clouds
10:53 AM 93.0 °F 96.4 °F 66.9 °F 42% 29.87 in 10.0 mi SSW 9.2 mph - N/A   Scattered Clouds
11:53 AM 96.1 °F 99.3 °F 66.0 °F 37% 29.86 in 10.0 mi SW 8.1 mph - N/A   Scattered Clouds
12:53 PM 99.0 °F 102.3 °F 64.9 °F 33% 29.84 in 10.0 mi SW 10.4 mph 17.3 mph N/A   Partly Cloudy
1:53 PM 102.9 °F 106.8 °F 64.9 °F 29% 29.81 in 10.0 mi SSW 9.2 mph - N/A   Partly Cloudy
2:53 PM 104.0 °F 108.1 °F 64.9 °F 28% 29.80 in 9.0 mi SSW 6.9 mph - N/A   Partly Cloudy
3:53 PM 105.1 °F 108.5 °F 64.0 °F 26% 29.78 in 10.0 mi SSE 10.4 mph - N/A   Clear
4:53 PM 106.0 °F 109.3 °F 63.0 °F 25% 29.76 in 10.0 mi South 12.7 mph 18.4 mph N/A   Clear
5:53 PM 106.0 °F 108.6 °F 62.1 °F 24% 29.75 in 10.0 mi South 12.7 mph - N/A   Clear
6:53 PM 104.0 °F 106.6 °F 63.0 °F 26% 29.73 in 10.0 mi South 13.8 mph 23.0 mph N/A   Clear
7:53 PM 100.9 °F 102.1 °F 61.0 °F 27% 29.74 in 10.0 mi South 13.8 mph - N/A   Clear
8:53 PM 99.0 °F 99.5 °F 61.0 °F 28% 29.75 in 10.0 mi South 12.7 mph - N/A   Clear
9:53 PM 97.0 °F 97.4 °F 61.0 °F 30% 29.78 in 10.0 mi South 8.1 mph - N/A   Clear
10:53 PM 95.0 °F 95.6 °F 62.1 °F 33% 29.80 in 10.0 mi South 10.4 mph - N/A   Clear
11:53 PM 93.9 °F 95.2 °F 63.0 °F 36% 29.81 in 10.0 mi South 10.4 mph - N/A   Clear